Retour au catalogue

STARLINK-36204

ActifCommunicationsVLEO
NORAD 68549·PAYLOAD·🇺🇸 United States

Lancé Apr 2, 2026 depuis Cape Canaveral Space Force Station

Loading…

Prochains Passages (prochaines 24 heures)

TLE

FraisSource: CelesTrak SupGP

Époque: Sep 15, 2026, 03:13 UTC

1 68549C 26070H   26258.13451389 -.00049233  00000+0 -14547-2 0  2587
2 68549  53.1574 198.9055 0001333  86.2625 223.0687 15.34412037    14

Suivez STARLINK-36204 en temps réel avec AllMySat

Download on the App Store